HOOD 3.00 47.85840 -122.6216 0.000 0.000 20191113_1025 MesoWest HOOD CANAL BRIDGE WA US WA DOT current weather conditions

sailwx.info

Wind from 268 at 2 knots gusting 3

Last reported at 2019-Nov-13 12:00 UTC.
Time now 2019-Nov-13 13:11 UTC

Location: N 47°52' W 122°37'.
View on Google Maps.

See reports from other nearby stations

  
Tides and Currents Weather Stations Pressure Air Temp Water Temp Dewpoint Dewpoint Depression Visibility Wind Speed Wind Dir Waves Ship Positions
date/time (UTC)wind fromknots sea level pressurealtimeterstation pressurevisibilityair tempwater tempwave heightnotes
2019-Nov-13 12:00 268 2 gusting 3
2019-Nov-13 11:55 267 2 gusting 4
2019-Nov-13 11:50 263 2 gusting 5
2019-Nov-13 11:45 284 1 gusting 5
2019-Nov-13 11:40 301 0 gusting 2
2019-Nov-13 11:35 323 1 gusting 3
2019-Nov-13 11:25 326 1 gusting 5
2019-Nov-13 11:15 350 1 gusting 4
2019-Nov-13 11:10 359 1 gusting 2
2019-Nov-13 11:00
2019-Nov-13 10:55
2019-Nov-13 10:50
2019-Nov-13 10:45
2019-Nov-13 10:40
2019-Nov-13 10:35
2019-Nov-13 10:30
2019-Nov-13 10:25
2019-Nov-13 10:15 160 1 gusting 3
2019-Nov-13 10:05 165 1 gusting 2
2019-Nov-13 10:00 160 1 gusting 2
2019-Nov-13 09:55 155 1 gusting 2
2019-Nov-13 09:45 174 1 gusting 2
2019-Nov-13 09:35 195 1 gusting 2
2019-Nov-13 09:25 195 1 gusting 2
2019-Nov-13 09:20 192 2 gusting 2
2019-Nov-13 09:10 199 1 gusting 2
2019-Nov-13 09:00
2019-Nov-13 08:50 295 0 gusting 3
2019-Nov-13 08:45 268 1 gusting 4
2019-Nov-13 08:40 274 1 gusting 4
2019-Nov-13 08:35 277 0 gusting 1
2019-Nov-13 08:25 257 0 gusting 1
2019-Nov-13 08:20 270 0 gusting 1
2019-Nov-13 08:15 282 0 gusting 1
2019-Nov-13 08:10
2019-Nov-13 08:00
2019-Nov-13 07:55
2019-Nov-13 07:50 353 0 gusting 2
2019-Nov-13 07:45 353 0 gusting 2
2019-Nov-13 07:40 353 0 gusting 2
2019-Nov-13 07:35 343 0 gusting 2
2019-Nov-13 07:30
2019-Nov-13 07:25
2019-Nov-13 07:15
2019-Nov-13 07:10
2019-Nov-13 07:00
2019-Nov-13 06:55
2019-Nov-13 06:45 097 0 gusting 2
2019-Nov-13 06:40 123 0 gusting 2
2019-Nov-13 06:35 128 2 gusting 2
2019-Nov-13 06:30 121 1 gusting 2
2019-Nov-13 06:25 131 1 gusting 2
2019-Nov-13 06:15 151 2 gusting 3
2019-Nov-13 06:10 148 2 gusting 3
2019-Nov-13 06:00 155 2 gusting 3
2019-Nov-13 05:55 155 2 gusting 3
2019-Nov-13 05:45 161 2 gusting 3
2019-Nov-13 05:35 161 2 gusting 5
2019-Nov-13 05:25 178 2 gusting 5
2019-Nov-13 05:15 189 5 gusting 7
2019-Nov-13 05:10 189 5 gusting 7
2019-Nov-13 05:00 175 4 gusting 5
2019-Nov-13 04:55 174 4 gusting 5
2019-Nov-13 04:50 169 3 gusting 5
2019-Nov-13 04:45 168 4 gusting 5
2019-Nov-13 04:35 181 3 gusting 5
2019-Nov-13 04:25 186 2 gusting 3
2019-Nov-13 04:15 184 2 gusting 3
2019-Nov-13 04:10 178 2 gusting 3
2019-Nov-13 04:05 167 2 gusting 2
2019-Nov-13 03:55 164 2 gusting 2
2019-Nov-13 03:50 165 2 gusting 2
2019-Nov-13 03:45 162 2 gusting 3
2019-Nov-13 03:40 160 2 gusting 3
2019-Nov-13 03:30 160 2 gusting 4
2019-Nov-13 03:25 160 2 gusting 4
2019-Nov-13 03:15 155 3 gusting 5
2019-Nov-13 03:05 151 4 gusting 5
2019-Nov-13 03:00 148 3 gusting 5
2019-Nov-13 02:55 144 2 gusting 4
2019-Nov-13 02:45 120 1 gusting 2
2019-Nov-13 02:40 126 1 gusting 2
2019-Nov-13 02:35 140 0 gusting 2
2019-Nov-13 02:30 151 1 gusting 2
2019-Nov-13 02:25 158 1 gusting 2
2019-Nov-13 02:15 137 2 gusting 3
2019-Nov-13 02:05 148 1 gusting 3
2019-Nov-13 02:00 150 1 gusting 2
2019-Nov-13 01:55 150 1 gusting 2
2019-Nov-13 01:45 090 0 gusting 2
2019-Nov-13 01:35 131 2 gusting 3
2019-Nov-13 01:30 130 2 gusting 3
2019-Nov-13 01:25 128 2 gusting 3
2019-Nov-13 01:15 120 2 gusting 4
2019-Nov-13 01:10 121 2 gusting 3
2019-Nov-13 01:00 143 2 gusting 4
2019-Nov-13 00:50 145 2 gusting 4
2019-Nov-13 00:45 150 2 gusting 5
2019-Nov-13 00:40 152 2 gusting 5
2019-Nov-13 00:35 157 3 gusting 5
2019-Nov-13 00:30 164 3 gusting 5
2019-Nov-13 00:25 164 2 gusting 5
2019-Nov-13 00:15 181 2 gusting 6
2019-Nov-13 00:10 179 3 gusting 6
2019-Nov-13 00:00 179 4 gusting 6
2019-Nov-12 23:55 176 4 gusting 6
2019-Nov-12 23:45 178 5 gusting 7
2019-Nov-12 23:40 182 4 gusting 6
2019-Nov-12 23:30 164 3 gusting 7
2019-Nov-12 23:25 158 4 gusting 7
2019-Nov-12 23:20 160 5 gusting 7
2019-Nov-12 23:15 160 5 gusting 8
2019-Nov-12 23:10 162 5 gusting 8
2019-Nov-12 23:05 164 6 gusting 11
2019-Nov-12 23:00 160 8 gusting 11
2019-Nov-12 22:55 157 8 gusting 11
2019-Nov-12 22:50 152 7 gusting 10
2019-Nov-12 22:45 160 5 gusting 8
2019-Nov-12 22:40 164 5 gusting 7
2019-Nov-12 22:35 165 4 gusting 6
2019-Nov-12 22:25 165 5 gusting 7
2019-Nov-12 22:20 167 6 gusting 9
2019-Nov-12 22:15 172 6 gusting 9
2019-Nov-12 22:10 181 5 gusting 9
2019-Nov-12 22:00 199 5 gusting 7
2019-Nov-12 21:55 208 5 gusting 7
2019-Nov-12 21:45 203 5 gusting 7
2019-Nov-12 21:35 205 4 gusting 5
2019-Nov-12 21:25 208 4 gusting 7
2019-Nov-12 21:20 205 4 gusting 7
2019-Nov-12 21:15 192 4 gusting 7
2019-Nov-12 21:05 169 5 gusting 9
2019-Nov-12 20:55 171 5 gusting 7
2019-Nov-12 20:50 174 4 gusting 7
2019-Nov-12 20:45 175 4 gusting 6
2019-Nov-12 20:40 176 4 gusting 6
2019-Nov-12 20:35 179 5 gusting 7
2019-Nov-12 20:25 176 6 gusting 9
2019-Nov-12 20:20 182 6 gusting 9
2019-Nov-12 20:15 189 5 gusting 9
2019-Nov-12 20:05 193 5 gusting 8
2019-Nov-12 20:00 195 4 gusting 6
2019-Nov-12 19:55 193 4 gusting 6
2019-Nov-12 19:45 189 2 gusting 5
2019-Nov-12 19:40 186 3 gusting 5
2019-Nov-12 19:35 181 3 gusting 5
2019-Nov-12 19:25 169 4 gusting 7
2019-Nov-12 19:20 178 4 gusting 7
2019-Nov-12 19:15 191 4 gusting 5
2019-Nov-12 19:10 193 4 gusting 5
2019-Nov-12 19:00 189 4 gusting 6
2019-Nov-12 18:55 192 4 gusting 5
2019-Nov-12 18:45 198 4 gusting 5
2019-Nov-12 18:40 196 4 gusting 5
2019-Nov-12 18:30 193 5 gusting 6
2019-Nov-12 18:25 196 5 gusting 6
2019-Nov-12 18:15 203 5 gusting 6
2019-Nov-12 18:05 212 5 gusting 7
2019-Nov-12 17:55 209 5 gusting 8
2019-Nov-12 17:50 205 4 gusting 7
2019-Nov-12 17:45 198 2 gusting 5
2019-Nov-12 17:40 192 2 gusting 5
2019-Nov-12 17:35 181 2 gusting 4
2019-Nov-12 17:25 186 2 gusting 3
2019-Nov-12 17:20 192 2 gusting 5
2019-Nov-12 17:15 189 2 gusting 5
2019-Nov-12 17:10 192 2 gusting 4
2019-Nov-12 17:00 210 2 gusting 4
2019-Nov-12 16:55 217 2 gusting 4
2019-Nov-12 16:50 232 2 gusting 4
2019-Nov-12 16:45 256 1 gusting 3
2019-Nov-12 16:40 263 1 gusting 2
2019-Nov-12 16:30
2019-Nov-12 16:25
2019-Nov-12 16:15 185 0 gusting 2
2019-Nov-12 16:05 219 0 gusting 2
2019-Nov-12 16:00
2019-Nov-12 15:55
2019-Nov-12 15:50 241 0 gusting 2
2019-Nov-12 15:40 267 2 gusting 5
2019-Nov-12 15:30 329 1 gusting 4
2019-Nov-12 15:25 330 1 gusting 4
2019-Nov-12 15:15 329 2 gusting 5
2019-Nov-12 15:10 326 2 gusting 6
2019-Nov-12 15:00 326 3 gusting 6
2019-Nov-12 14:55 326 4 gusting 7
2019-Nov-12 14:50 325 5 gusting 9
2019-Nov-12 14:40 330 5 gusting 11
2019-Nov-12 14:35 333 5 gusting 11
2019-Nov-12 14:30 337 4 gusting 9
2019-Nov-12 14:20 340 2 gusting 7
2019-Nov-12 14:15 346 2 gusting 5
2019-Nov-12 14:10 346 2 gusting 4
2019-Nov-12 14:05 340 2 gusting 5
2019-Nov-12 13:55 330 1 gusting 3
2019-Nov-12 13:50 318 1 gusting 3
2019-Nov-12 13:45 312 1 gusting 2
2019-Nov-12 13:40 306 1 gusting 2
2019-Nov-12 13:35 291 0 gusting 2
2019-Nov-12 13:30
2019-Nov-12 13:25
2019-Nov-12 13:15 270 1 gusting 3
2019-Nov-12 13:10 264 1 gusting 3
2019-Nov-12 13:00 247 2 gusting 6
2019-Nov-12 12:50 233 2 gusting 6
2019-Nov-12 12:45 236 1 gusting 2
2019-Nov-12 12:40 260 0 gusting 2
2019-Nov-12 12:35 308 0 gusting 2
2019-Nov-12 12:25 284 0 gusting 2
2019-Nov-12 12:15 272 1 gusting 3
2019-Nov-12 12:05 260 2 gusting 3
2019-Nov-12 11:55 299 0 gusting 2
2019-Nov-12 11:50 329 0 gusting 2
2019-Nov-12 11:45
2019-Nov-12 11:40
2019-Nov-12 11:35
2019-Nov-12 11:30
2019-Nov-12 11:25
2019-Nov-12 11:20
2019-Nov-12 11:15 354 0 gusting 3
2019-Nov-12 11:05 347 0 gusting 2
2019-Nov-12 10:55 319 1 gusting 3
2019-Nov-12 10:45 343 2 gusting 5
2019-Nov-12 10:40 349 2 gusting 6
2019-Nov-12 10:30 342 3 gusting 7
2019-Nov-12 10:25 343 3 gusting 8
2019-Nov-12 10:20 349 3 gusting 8
2019-Nov-12 10:15 347 4 gusting 11
2019-Nov-12 10:10 344 5 gusting 12
2019-Nov-12 10:05 333 5 gusting 12
2019-Nov-12 09:55 328 4 gusting 9
2019-Nov-12 09:45 325 5 gusting 12
2019-Nov-12 09:40 326 5 gusting 12
2019-Nov-12 09:35 326 5 gusting 12
2019-Nov-12 09:25 325 7 gusting 14
2019-Nov-12 09:20 330 8 gusting 15
2019-Nov-12 09:10 337 8 gusting 15
2019-Nov-12 09:05 349 8 gusting 15
2019-Nov-12 09:00 349 8 gusting 14
2019-Nov-12 08:55 349 8 gusting 14
2019-Nov-12 08:45 328 5 gusting 12
2019-Nov-12 08:35 325 7 gusting 12
2019-Nov-12 08:25 323 9 gusting 17
2019-Nov-12 08:20 323 8 gusting 16
2019-Nov-12 08:15 328 6 gusting 16
2019-Nov-12 08:10 329 6 gusting 14
2019-Nov-12 08:00 325 5 gusting 10
2019-Nov-12 07:55 325 5 gusting 10
2019-Nov-12 07:50 323 5 gusting 12
2019-Nov-12 07:45 325 5 gusting 12
2019-Nov-12 07:35 329 5 gusting 10
2019-Nov-12 07:30 335 5 gusting 12
2019-Nov-12 07:25 342 5 gusting 12
2019-Nov-12 07:15 335 3 gusting 9
2019-Nov-12 07:10 329 2 gusting 7
2019-Nov-12 07:05 325 3 gusting 9
2019-Nov-12 07:00 328 5 gusting 9
2019-Nov-12 06:50 336 5 gusting 9
2019-Nov-12 06:45 340 4 gusting 9
2019-Nov-12 06:40 346 4 gusting 9
2019-Nov-12 06:30 014 3 gusting 7
2019-Nov-12 06:25 016 3 gusting 7
2019-Nov-12 06:15 339 2 gusting 4
2019-Nov-12 06:10 325 1 gusting 4
2019-Nov-12 06:05 288 1 gusting 3
2019-Nov-12 06:00 278 0 gusting 2
2019-Nov-12 05:55 277 0 gusting 2
2019-Nov-12 05:45 243 0 gusting 2
2019-Nov-12 05:40 244 1 gusting 2
2019-Nov-12 05:35 229 1 gusting 2
2019-Nov-12 05:30 224 1 gusting 3
2019-Nov-12 05:20 258 2 gusting 5
2019-Nov-12 05:15 260 4 gusting 7
2019-Nov-12 05:05 229 2 gusting 5
2019-Nov-12 04:55 195 2 gusting 4
2019-Nov-12 04:45 192 1 gusting 3
2019-Nov-12 04:35 215 1 gusting 2
2019-Nov-12 04:30 186 2 gusting 4
2019-Nov-12 04:25 171 2 gusting 4
2019-Nov-12 04:15 174 2 gusting 4
2019-Nov-12 04:10 167 2 gusting 4
2019-Nov-12 04:05 161 2 gusting 4
2019-Nov-12 04:00 195 1 gusting 3
2019-Nov-12 03:55 230 0 gusting 2
2019-Nov-12 03:50 267 0 gusting 2
2019-Nov-12 03:45 241 0 gusting 2
2019-Nov-12 03:40 234 0 gusting 1
2019-Nov-12 03:30 256 1 gusting 2
2019-Nov-12 03:25 258 2 gusting 3
2019-Nov-12 03:15 256 2 gusting 5
2019-Nov-12 03:05 181 0 gusting 3
2019-Nov-12 03:00 113 0 gusting 2
2019-Nov-12 02:55 079 0 gusting 2
2019-Nov-12 02:45 006 0 gusting 2
2019-Nov-12 02:40 359 0 gusting 3
2019-Nov-12 02:35 357 1 gusting 3
2019-Nov-12 02:25 356 2 gusting 4
2019-Nov-12 02:15 357 2 gusting 5
2019-Nov-12 02:10 353 2 gusting 5
2019-Nov-12 02:05 340 2 gusting 5
2019-Nov-12 02:00 335 2 gusting 5
2019-Nov-12 01:55 336 2 gusting 5
2019-Nov-12 01:45 340 5 gusting 9
2019-Nov-12 01:35 357 3 gusting 7
2019-Nov-12 01:30 004 2 gusting 5
2019-Nov-12 01:25 007 2 gusting 5
2019-Nov-12 01:15 339 3 gusting 7
2019-Nov-12 01:10 333 3 gusting 7
2019-Nov-12 01:00 342 2 gusting 5
2019-Nov-12 00:55 346 2 gusting 6
2019-Nov-12 00:45 337 4 gusting 8
2019-Nov-12 00:40 336 4 gusting 8
2019-Nov-12 00:35 332 4 gusting 9
2019-Nov-12 00:25 328 5 gusting 10
2019-Nov-12 00:20 328 5 gusting 10
2019-Nov-12 00:15 330 5 gusting 11
2019-Nov-12 00:10 332 5 gusting 11
2019-Nov-12 00:00 332 5 gusting 10
2019-Nov-11 23:55 336 5 gusting 10
2019-Nov-11 23:45 342 5 gusting 11
2019-Nov-11 23:40 340 5 gusting 11
2019-Nov-11 23:35 350 4 gusting 9
2019-Nov-11 23:25 356 3 gusting 6
2019-Nov-11 23:15 023 2 gusting 5
2019-Nov-11 23:10 018 2 gusting 5
2019-Nov-11 23:00 359 3 gusting 7
2019-Nov-11 22:55 354 3 gusting 7
2019-Nov-11 22:45 350 2 gusting 6
2019-Nov-11 22:40 349 2 gusting 6
2019-Nov-11 22:35 342 3 gusting 6
2019-Nov-11 22:25 344 4 gusting 8
2019-Nov-11 22:20 340 4 gusting 8
2019-Nov-11 22:15 344 4 gusting 8
2019-Nov-11 22:10 347 4 gusting 8
2019-Nov-11 22:05 349 4 gusting 7
2019-Nov-11 21:55 343 5 gusting 8
2019-Nov-11 21:50 342 5 gusting 8
2019-Nov-11 21:45 340 5 gusting 9
2019-Nov-11 21:40 342 5 gusting 9
2019-Nov-11 21:30 346 4 gusting 8
2019-Nov-11 21:25 346 4 gusting 8
2019-Nov-11 21:15 350 4 gusting 8
2019-Nov-11 21:10 350 4 gusting 9
2019-Nov-11 21:00 346 5 gusting 9
2019-Nov-11 20:55 344 5 gusting 9
2019-Nov-11 20:50 344 5 gusting 9
2019-Nov-11 20:45 343 5 gusting 9
2019-Nov-11 20:40 343 5 gusting 9
2019-Nov-11 20:30 339 5 gusting 9
2019-Nov-11 20:25 344 5 gusting 9
2019-Nov-11 20:15 346 5 gusting 8
2019-Nov-11 20:05 352 4 gusting 7
2019-Nov-11 20:00 340 4 gusting 7
2019-Nov-11 19:55 336 4 gusting 8
2019-Nov-11 19:50 343 5 gusting 9
2019-Nov-11 19:45 339 4 gusting 8
2019-Nov-11 19:35 343 3 gusting 7
2019-Nov-11 19:30 003 3 gusting 6
2019-Nov-11 19:25 008 3 gusting 7
2019-Nov-11 19:15 357 3 gusting 7
2019-Nov-11 19:05 006 2 gusting 5
2019-Nov-11 19:00 028 2 gusting 5
2019-Nov-11 18:55 031 2 gusting 5
2019-Nov-11 18:45 027 1 gusting 3
2019-Nov-11 18:40 027 1 gusting 2
2019-Nov-11 18:30 034 1 gusting 4
2019-Nov-11 18:20 017 0 gusting 2
2019-Nov-11 18:15 045 0 gusting 2
2019-Nov-11 18:10 059 1 gusting 4
2019-Nov-11 18:05 041 1 gusting 4
2019-Nov-11 18:00 011 0 gusting 3
2019-Nov-11 17:50 017 2 gusting 4
2019-Nov-11 17:45 011 1 gusting 3
2019-Nov-11 17:40
2019-Nov-11 17:35
2019-Nov-11 17:30 031 1 gusting 4
2019-Nov-11 17:25 034 1 gusting 4
2019-Nov-11 17:15 017 1 gusting 4
2019-Nov-11 17:10 018 1 gusting 3
2019-Nov-11 17:05 040 2 gusting 5
2019-Nov-11 17:00 047 2 gusting 5
2019-Nov-11 16:55 042 2 gusting 5
2019-Nov-11 16:45 047 2 gusting 5
2019-Nov-11 16:40 044 2 gusting 5
2019-Nov-11 16:35 045 2 gusting 5
2019-Nov-11 16:30 038 2 gusting 4
2019-Nov-11 16:20 030 2 gusting 5
2019-Nov-11 16:15 038 2 gusting 5
2019-Nov-11 16:05 032 1 gusting 4
2019-Nov-11 16:00 027 1 gusting 4
2019-Nov-11 15:55 024 1 gusting 3
2019-Nov-11 15:50 011 2 gusting 3
2019-Nov-11 15:45 344 2 gusting 3
2019-Nov-11 15:40 343 2 gusting 3
2019-Nov-11 15:35 349 2 gusting 4
2019-Nov-11 15:25 330 1 gusting 4
2019-Nov-11 15:15 281 2 gusting 5
2019-Nov-11 15:05 257 3 gusting 5
2019-Nov-11 15:00 272 2 gusting 4
2019-Nov-11 14:50 306 0 gusting 2
2019-Nov-11 14:45 318 0 gusting 2
2019-Nov-11 14:40 322 0 gusting 2
2019-Nov-11 14:30 332 1 gusting 3
2019-Nov-11 14:25 340 2 gusting 4
2019-Nov-11 14:15 011 1 gusting 5
2019-Nov-11 14:10
2019-Nov-11 14:05 349 1 gusting 3
2019-Nov-11 14:00 332 1 gusting 3
2019-Nov-11 13:55 312 1 gusting 3
2019-Nov-11 13:45 260 4 gusting 5
2019-Nov-11 13:40 258 4 gusting 6
2019-Nov-11 13:30 267 4 gusting 5
2019-Nov-11 13:25 268 4 gusting 5
2019-Nov-11 13:15 277 2 gusting 5
2019-Nov-11 13:05 270 3 gusting 5
2019-Nov-11 13:00 282 2 gusting 5